Weather in Novorybnaya

Russia / Krasnoyarsk Krai     72°50′08″N   105°47′54″E
temp.,
°C
wind,
m/s
gust,
m/s
humid.,
%
clouds,
%
prec.,
mm/h
press.,
hPa
HPBL,
m
17 april, sat
sat1701:00−13nne71394100 0.3 995341
04:00−13nne71294100 0.3 996413
07:00−13nne71192100 0.5 998503
10:00−13nne6988100 0.1 999576
13:00−13nne6884100 0.1 1001666
16:00−12n4785100 0.0 1003668
19:00−13nw3594100 0.0 1005101
22:00−14nw3594100 0.0 100674
18 april, sun
sun1801:00−15wnw3592100 0.0 100782
04:00−16w4692100 0.0 1009121
07:00−15w4790100 0.0 1010235
10:00−14w5786100 0.0 1011385
13:00−12wnw6885100 0.0 1012530
16:00−12w6891100 0.1 1014424
19:00−13w589499 0.2 1015306
22:00−14w589499 0.1 1016190
19 april, mon
mon1901:00−16w4892100 0.1 1017176
04:00−17wsw599290 0.0 1017180
07:00−17wsw61093100 0.0 1018257
10:00−17wsw61092100 0.0 1019286
13:00−15wsw6991100 0.0 1019333
16:00−15wsw5890100 0.0 1020293
19:00−17wsw3693100 0.0 102173
22:00−21sw339892 0.0 102125
20 april, tue
tue2001:00−22sw2210094 0.0 102122
04:00−25ssw229977 0.0 102212
07:00−20ssw1193100 0.0 102238
10:00−15ese0186100 0.0 102293
13:00−13ene2284100 0.0 1022172
16:00−12ene2388100 0.0 1022113
19:00−16ene229487 0.0 102310
22:00−20ene2210080 0.0 102310
21 april, wed
wed2101:00−22ne22100100 0.0 102310
04:00−22nne2210088 0.0 102310
07:00−21n119972 0.0 102422
10:00−17w229363 0.0 102486
13:00−15wsw339060 0.0 1024166
16:00−14wsw3591100 0.0 1025172
19:00−17wsw3394100 0.0 102533
22:00−19sw349777 0.0 102544